CZ-6A DEB, 56261

Orbit data source: Space-Track

CZ-6A DEB, 56261 is space debris in SSO originally from a launch on Fri, 11 Nov 2022 UTC launched from the Taiyaun Space Center, China (TSC). Debris objects in space refer to the collection of defunct objects orbiting the Earth. Examples of debris include non-operational satellites, rocket bodies, and fragments generated from explosions, collisions, or faulty payload assembly.

Loading next visibility...
Identifier
56261, 2022-151ACD
Orbit
SSO
Country
Flag of CNCN / PRC
Related business
Manufacturer
SAST
Mission
Spacecraft
Bus & Motor
Unknown
Mass
Unknown
Launch date (UTC)
2022-11-11 (3 years ago)
Launch vehicle
Unknown
Launch site
Taiyaun Space Center, China (TSC)
Object type
Payload
Rocket body
Debris
Shape & HBR
Unknown shape, 1.1 m
Radar Cross Section
Small (<0.1 m²)

Expand to show TLE details & history
Last TLE update: 17 hours ago

TLE from 17 hours ago
0 CZ-6A DEB
1 56261U 22151ACD 26130.04828775  .00005314  00000-0  19039-2 0  9991
2 56261  98.7966 151.0507 0040738  46.9063 313.5518 14.33916607166533
Epoch: 2026-05-10T01:09Z
TLE epoch observation values (Epoch: 2026-05-10T01:09:32.061Z)
Latitude
-0.00004°
Longitude
-94.18985°
Altitude
761.57 km
Speed
7.484 km/s
True Right ascension
10h 04m 12s
True Declination
0° 00' 00"
Sunlit
Object was in daylight at epoch
Visualization orbit readout
Latitude
Unknown
Longitude
Unknown
Altitude
Unknown
Speed
Unknown
Apparent Right ascension
Unknown
Apparent Declination
Unknown
Sunlit
N/A
Visualization observer readout
Local Sidereal Time
02:46:58
Azimuth
Unknown
Elevation
Unknown
Doppler factor
Unknown
Orbital elements
Apogee altitude
804.957 km
Perigee altitude
746.669 km
Semi-major axis
7,153.95 km
Eccentricity
0.00407
Inclination
98.7966°
RAAN
151.0507°
Arg. of periapsis
46.9063°
True anomaly
313.21228°
Mean anomaly
313.5518°
Eccentric anomaly
313.38216°
Mean motion
3.58694 °/min
Orbital period
100.36 mins
BSTAR
0.0019039
Loading maneuver chart data...
Computing Atmospheric mass density...
Loading historical data...
Loading historical data...
Loading historical data...
Loading historical data...
Loading historical data...
Loading historical data...
Loading historical data...

Documentation

Showing up to 5 results
|